RH
56 58 59 100 81 70 52 48 60 38 52 36 32 31 30 23 37 37 38 40 34 32 35 30 31 38 46 85 77 58 98 100 100 100 99 86 62 64 66 50 43 41 27 27 23 18 19 24 33
58 68 63 100 95 78 53 43 69 49 62 39 31 34 33 28 23 46 49 62 66 88 98 91 95 78 66 90 92 100 100 100 99 71 74 96 58 55 63 41 24 18 15 18 22 25 23 18 19
80 78 59 100 95 69 53 62 77 65 68 44 34 33 35 33 24 34 66 69 65 75 100 100 94 100 100 100 100 100 100 100 92 69 97 79 60 62 42 18 18 18 15 14 13 14 14 18 18
100 92 99 100 79 73 62 64 73 72 60 46 35 36 31 34 31 29 53 75 77 80 100 100 100 100 92 77 79 85 72 94 86 89 82 62 64 33 19 23 24 23 19 16 15 14 13 12 12
100 100 100 92 97 82 59 68 56 68 52 46 37 39 34 31 34 28 33 49 67 71 82 90 100 96 88 89 85 81 98 96 81 69 65 57 30 19 23 25 28 28 28 26 23 20 19 16 13
100 93 99 98 98 86 58 68 36 49 72 53 37 41 37 32 33 35 26 33 50 72 75 95 100 100 100 98 100 92 96 99 75 67 64 44 20 23 26 28 27 26 26 26 27 27 26 23 20
100 86 84 100 100 78 64 71 61 77 84 65 37 42 37 33 32 34 35 25 31 56 77 81 78 82 85 78 93 100 98 87 75 59 38 22 24 27 28 28 27 26 26 26 26 26 26 24 23
100 91 88 100 100 78 68 50 68 92 98 55 36 40 34 32 31 34 35 32 24 31 52 73 78 79 80 80 78 71 69 58 56 28 23 26 28 29 29 30 32 32 31 29 29 28 27 26 24
98 95 96 94 91 74 58 61 94 79 94 42 35 36 31 30 29 28 32 34 29 24 32 46 62 70 70 64 57 61 38 32 25 23 26 28 30 31 33 32 30 30 30 29 28 27 26 26 27
100 83 96 94 79 60 87 98 90 88 84 40 32 31 30 29 26 25 27 32 35 26 24 26 37 43 36 29 27 25 23 23 24 26 28 30 31 33 34 31 30 30 29 27 26 24 23 21 22
100 100 100 78 71 72 100 84 87 92 70 33 30 28 25 29 26 24 26 31 32 32 25 24 22 26 23 23 24 24 24 24 26 30 31 31 33 35 33 31 30 30 29 26 24 23 21 19 19
100 100 100 77 70 78 87 76 96 85 47 32 31 24 22 27 24 24 26 32 30 37 28 26 23 20 22 24 25 26 26 26 29 30 31 32 35 36 35 33 32 33 31 27 26 23 20 16 15
100 100 100 88 78 88 66 94 93 78 38 33 30 27 25 24 26 27 32 32 28 37 35 27 26 22 22 25 27 28 29 30 31 32 32 33 36 37 36 35 35 34 32 29 27 25 21 18 16
100 100 100 90 82 73 72 65 82 80 38 34 33 26 26 24 25 27 31 30 26 32 42 31 28 27 24 24 25 27 29 31 32 33 34 35 37 38 38 36 36 36 33 31 28 26 22 20 19
100 100 89 95 82 72 65 71 94 86 43 39 35 28 33 27 26 26 29 24 25 27 42 39 30 30 28 27 27 28 30 31 32 33 35 37 37 38 39 38 38 37 34 34 31 28 24 22 22
100 99 86 88 78 83 57 83 96 89 57 44 40 40 41 30 28 27 30 29 25 26 36 45 37 31 32 32 30 30 30 32 33 34 35 37 40 40 40 40 39 38 38 36 34 29 25 25 25
100 100 100 73 77 77 64 86 84 94 64 52 44 52 50 35 34 33 35 39 32 31 29 38 43 37 33 35 36 39 39 39 40 39 39 40 41 43 43 43 41 40 40 39 35 27 26 27 27
100 100 78 78 89 72 73 80 83 84 67 60 53 59 56 39 37 38 40 43 47 36 35 33 35 42 39 35 35 34 33 33 33 34 40 45 48 47 46 44 43 42 42 35 29 28 28 29 30
100 96 77 68 94 73 73 91 89 77 58 55 57 70 64 46 40 41 45 47 53 55 37 40 39 37 40 41 39 37 36 35 34 33 35 38 41 45 43 41 38 36 33 32 31 30 31 32 32
90 89 75 100 85 80 96 93 78 79 61 55 71 80 69 49 52 44 46 53 55 66 60 43 39 45 42 40 40 41 40 40 38 37 38 39 39 38 38 36 36 35 34 33 33 34 34 34 33
97 95 100 100 94 99 90 73 65 61 72 68 73 86 75 56 56 56 49 53 58 57 71 68 54 44 42 51 51 48 45 44 42 41 40 40 39 39 38 38 37 37 37 37 37 37 37 36 35
96 100 100 100 99 94 78 78 70 64 69 88 100 96 76 61 56 69 58 50 52 62 66 65 72 76 64 51 46 44 52 56 54 49 48 46 45 43 42 42 42 41 41 40 40 42 45 47 47
100 100 100 100 97 88 82 68 100 75 79 92 82 71 72 74 63 67 67 61 54 53 61 65 66 65 68 74 76 76 65 51 47 48 52 58 61 61 59 56 56 54 54 53 54 53 52 51 50
100 100 100 100 99 81 88 67 94 100 100 100 88 77 73 72 68 68 72 65 62 61 57 58 61 60 56 54 54 60 70 80 87 85 76 66 57 51 48 47 47 47 48 47 47 46 45 42 42
100 100 100 98 100 92 84 75 99 100 100 100 99 91 81 76 69 64 66 69 68 66 67 69 70 64 58 55 51 45 44 50 58 72 80 83 84 84 86 86 81 76 72 70 67 64 62 60 63
100 100 96 94 97 89 86 85 95 100 100 100 100 95 90 90 84 79 74 75 73 71 69 67 68 71 68 61 58 55 53 55 56 52 51 50 50 55 65 70 77 85 92 94 92 86 83 83 83
100 97 96 90 91 92 84 85 89 89 98 99 100 97 91 87 89 96 100 100 100 97 91 85 78 71 67 65 66 58 57 59 59 58 53 50 51 52 54 51 47 48 52 57 63 71 73 78 80
100 100 100 97 84 84 85 92 96 98 100 100 93 90 93 95 97 98 99 96 94 87 79 68 60 55 52 52 54 58 62 64 62 59 59 58 59 61 58 58 61 62 60 57 55 54 54 54 59
96 96 98 95 92 96 93 99 100 100 98 92 88 88 91 95 98 100 100 100 92 82 76 66 60 55 51 54 57 64 70 71 70 70 66 63 64 63 58 54 50 51 56 57 52 51 55 60 62
94 89 85 85 91 90 89 91 92 96 88 87 85 92 100 100 100 91 82 77 75 72 76 78 79 79 80 81 77 76 77 76 78 79 77 67 62 60 61 59 56 51 50 49 48 49 50 54 58
Wind_Speed
48 45 47 48 50 52 54 54 54 53 55 48 39 32 30 28 22 19 14 14 17 20 23 23 23 25 27 25 26 22 21 26 28 27 28 25 23 21 23 25 26 28 28 28 29 33 37 42 49
48 44 44 46 50 51 50 54 52 53 51 47 40 33 29 27 22 20 17 14 13 14 16 16 16 18 19 22 20 21 24 28 33 30 28 28 25 24 25 26 25 27 26 26 27 28 30 35 39
45 45 41 44 49 53 50 52 50 53 48 48 39 34 29 26 25 19 18 16 12 16 16 18 18 21 25 23 24 28 29 32 34 28 28 26 26 25 25 21 21 21 23 22 21 23 27 28 30
48 44 44 44 51 49 47 48 49 48 47 48 40 34 30 26 25 22 19 21 18 15 15 21 23 23 29 28 29 29 27 26 26 28 27 26 26 24 19 18 19 19 20 18 18 20 22 25 25
49 41 40 48 51 47 48 47 49 46 49 42 38 33 31 28 26 26 22 22 22 21 20 19 20 18 18 22 22 24 25 28 28 27 27 26 23 19 18 19 18 18 18 17 18 20 22 23 24
46 45 45 51 50 46 47 45 48 49 47 40 36 34 32 31 28 28 27 24 25 24 24 25 26 25 25 26 27 28 28 29 29 27 28 24 19 19 20 19 19 19 19 18 21 21 23 25 26
52 50 44 49 48 49 45 45 47 48 51 40 35 33 33 31 30 30 30 28 27 28 28 28 28 30 30 29 29 31 31 29 30 31 26 22 20 21 20 19 19 19 19 18 19 21 23 26 27
54 47 48 54 49 50 44 47 46 48 45 39 34 33 34 33 31 30 32 32 30 29 30 31 29 30 30 29 30 30 33 34 31 28 25 23 22 21 21 20 19 19 20 20 20 22 23 24 26
56 55 52 55 52 51 48 48 45 52 40 37 34 35 36 35 35 34 32 34 33 31 32 34 34 34 34 35 36 36 32 30 29 27 26 25 24 24 22 21 21 21 21 22 22 23 24 26 28
54 57 53 54 52 48 46 45 49 49 38 36 34 34 36 36 36 37 35 33 36 34 32 34 35 35 34 32 30 30 30 30 29 28 28 27 27 27 25 25 24 24 24 25 25 26 27 28 30
61 56 55 53 53 48 44 47 48 41 36 34 34 36 36 36 38 38 37 35 36 36 34 34 34 35 33 31 31 31 31 31 30 31 31 31 30 31 30 29 28 28 28 28 28 28 28 29 30
61 57 58 56 52 48 49 47 42 37 33 33 34 34 34 35 36 37 36 36 36 37 36 35 35 35 34 33 33 33 34 33 33 34 34 34 34 35 35 34 34 33 33 32 31 31 30 28 28
60 61 57 56 52 48 47 43 40 36 32 33 34 35 34 34 34 33 33 35 36 38 38 37 36 36 36 35 35 36 36 36 36 36 37 37 38 39 39 40 39 38 37 36 36 34 32 32 31
58 58 52 55 50 50 46 44 45 38 34 32 34 34 33 34 33 30 30 34 36 39 40 39 38 37 38 38 38 39 39 40 39 39 39 40 42 42 43 43 42 42 41 40 39 36 35 34 34
54 55 58 52 50 48 46 44 42 39 35 34 35 34 34 35 34 29 26 33 37 39 41 42 40 38 39 40 41 42 41 42 43 42 43 44 45 46 48 48 47 46 44 43 41 39 38 37 37
59 58 54 50 49 45 45 43 42 40 38 35 35 37 36 35 35 32 27 26 36 40 42 43 43 41 40 41 42 43 44 44 45 45 46 46 48 49 50 50 50 48 47 46 44 42 41 40 40
55 53 50 50 48 46 44 41 46 42 39 38 36 36 34 35 35 33 30 28 29 39 43 44 44 43 42 42 42 42 43 44 45 46 47 48 49 51 52 52 52 50 49 47 45 43 44 43 42
50 51 50 49 47 46 45 46 45 42 41 39 38 36 35 35 36 35 32 30 30 31 40 44 45 46 46 45 45 46 46 46 46 47 47 48 50 51 52 53 53 52 49 48 47 47 47 47 46
52 49 50 50 45 46 49 46 42 43 42 41 40 37 35 36 37 36 34 32 32 31 32 41 44 47 48 48 49 49 49 49 49 50 50 51 51 52 53 54 53 52 51 50 50 51 51 51 50
50 50 51 46 47 49 44 42 38 43 43 43 41 39 37 37 35 36 35 34 32 34 34 34 36 44 47 49 51 52 52 52 52 53 53 54 55 55 56 56 55 55 54 54 54 54 55 55 54
48 49 47 46 46 43 43 43 42 44 46 46 42 40 40 40 35 36 35 35 34 34 35 36 37 37 39 45 50 52 52 53 55 56 57 58 58 59 59 59 59 59 59 59 58 58 57 57 56
49 50 48 47 47 46 42 43 47 47 45 46 44 44 43 42 39 36 36 37 37 37 37 38 38 39 41 43 44 45 49 53 56 58 59 60 60 61 62 62 62 62 62 62 61 61 61 61 60
47 46 48 49 47 42 46 41 51 51 49 47 46 47 45 43 42 39 38 38 40 41 41 41 43 43 44 46 47 48 50 51 53 55 56 58 60 62 63 64 64 65 65 65 64 64 63 61 60
49 49 51 48 49 45 50 46 45 53 53 53 52 50 48 48 47 44 43 43 44 44 45 45 47 47 48 50 51 51 51 53 56 58 59 60 61 62 62 63 63 63 63 63 63 63 63 62 62
52 53 53 54 54 50 52 48 46 52 56 57 58 55 54 52 50 49 49 49 49 50 52 53 54 54 53 54 55 55 54 56 59 61 62 62 63 64 65 66 67 68 68 67 68 68 67 67 65
52 53 55 54 56 54 52 48 51 55 56 58 59 59 58 56 55 54 54 55 55 56 56 57 58 59 59 59 59 58 58 59 60 61 61 62 64 65 67 68 69 70 70 70 70 71 70 69 68
55 57 58 55 55 54 52 52 54 57 59 61 61 60 59 59 60 60 60 60 61 61 61 62 62 62 62 62 62 62 64 66 68 66 65 65 66 67 68 68 68 68 69 71 74 76 77 76 76
56 56 57 58 56 56 55 58 61 62 63 63 62 62 62 62 63 64 64 65 65 65 63 62 62 63 64 65 67 68 69 70 72 72 73 73 74 74 75 75 74 75 77 77 76 77 78 79 80
57 58 61 62 61 62 62 64 64 64 63 63 62 64 65 65 65 66 67 68 68 69 69 70 70 70 72 73 73 75 76 76 78 80 81 82 82 83 82 82 81 82 83 82 82 83 82 82 82
62 64 66 67 66 66 64 62 63 64 63 64 66 66 67 68 68 68 69 71 73 74 76 76 78 79 80 80 81 81 83 85 86 89 90 90 90 89 89 89 88 88 88 88 88 88 87 88 88
Wind_Direction
308 317 318 315 317 320 333 326 326 332 333 334 332 329 329 327 324 318 299 259 243 237 239 240 238 233 234 232 243 239 242 248 247 253 259 263 263 254 261 266 262 265 261 256 250 245 240 237 234
308 312 314 309 318 325 331 327 325 329 332 333 330 323 325 319 319 309 307 297 238 227 227 239 226 236 223 224 231 232 239 241 246 259 258 266 260 260 269 271 267 267 264 256 252 249 245 238 235
304 309 314 314 321 327 328 324 326 331 329 331 325 321 318 312 308 304 289 287 254 240 231 233 239 236 230 231 230 238 247 250 252 255 265 261 261 259 268 261 257 262 262 257 255 256 253 248 241
298 305 311 309 315 323 325 323 327 328 325 326 321 317 315 311 299 294 282 277 267 241 229 236 246 253 239 235 241 249 249 251 250 262 259 260 261 261 252 251 256 258 262 260 259 258 254 251 246
300 306 303 301 314 320 322 320 324 322 321 320 316 312 309 310 297 289 279 271 263 244 237 237 247 247 242 242 242 243 259 253 261 257 258 259 261 250 249 247 250 253 257 260 258 259 259 259 254
294 303 301 298 309 317 321 317 321 317 319 316 313 306 306 304 299 287 282 274 268 261 252 250 254 255 254 255 254 254 256 257 262 258 262 258 250 246 244 247 251 254 256 257 259 261 263 267 266
296 301 301 304 311 316 318 313 314 314 313 312 310 302 302 301 298 290 278 273 268 260 256 253 253 254 258 255 252 251 255 257 260 265 258 253 247 244 245 246 249 252 256 256 256 258 262 265 265
295 298 301 301 308 313 313 313 310 311 308 308 306 301 300 296 293 287 278 270 267 263 259 256 255 254 255 257 258 256 258 261 256 254 252 246 245 246 245 246 249 255 260 260 261 261 260 262 263
293 292 297 300 305 310 308 311 307 311 302 302 300 300 300 294 289 285 277 267 264 264 259 257 254 253 255 258 257 259 256 250 249 249 245 244 246 244 242 245 252 257 262 263 265 268 269 265 262
292 294 296 301 304 307 305 304 306 306 299 298 300 301 300 293 290 284 277 268 259 259 260 258 256 255 257 257 254 251 250 249 249 248 245 245 244 243 244 248 253 261 267 270 271 274 274 269 264
290 292 295 301 301 303 297 303 304 299 297 297 298 301 300 296 291 282 271 265 258 256 257 257 256 255 255 253 252 251 250 250 250 249 248 246 245 242 245 250 256 264 271 274 275 279 278 272 266
288 289 293 296 299 298 296 301 297 295 294 294 295 300 305 300 295 283 269 260 259 253 255 255 254 252 253 252 251 250 250 248 248 250 250 249 249 247 249 253 260 268 274 279 280 282 281 274 270
286 288 290 293 298 295 299 295 296 287 289 292 295 298 304 302 299 286 271 260 256 251 251 254 253 251 250 251 251 251 250 250 251 251 251 250 251 252 254 258 263 268 273 277 280 282 280 275 273
284 284 287 295 292 295 293 291 292 283 285 291 293 301 306 306 303 291 272 261 255 251 249 251 252 252 250 251 251 252 252 252 253 253 253 252 253 255 257 260 263 268 272 275 278 279 278 276 275
280 283 289 288 291 291 290 291 284 280 282 289 295 301 303 308 306 300 284 259 253 250 249 250 251 251 251 251 252 253 254 254 255 255 255 255 255 258 260 263 265 268 271 275 277 277 276 276 277
279 282 285 284 289 285 290 286 281 279 280 289 294 299 300 305 304 303 292 278 255 251 248 249 251 252 252 252 252 254 255 257 258 258 258 258 259 260 262 264 266 268 271 273 274 274 274 277 278
275 279 279 286 284 284 287 283 281 277 278 284 291 295 295 301 300 300 296 287 274 256 252 250 251 252 253 253 253 254 255 256 257 258 259 260 260 261 263 265 267 268 270 272 272 271 272 275 276
272 275 281 283 279 283 282 280 280 275 279 282 287 290 292 296 297 296 293 287 281 272 258 254 253 252 253 254 255 256 256 258 258 258 259 260 260 262 263 266 268 269 270 270 270 270 272 275 276
271 274 280 280 275 281 279 275 272 274 279 282 284 283 286 290 293 292 290 286 282 277 271 260 257 256 255 255 256 258 259 260 260 260 260 261 261 262 264 266 268 270 270 270 270 271 272 275 276
271 274 278 272 276 276 271 273 274 278 281 279 280 279 283 288 287 288 287 285 280 276 273 269 264 258 258 258 258 259 260 261 261 261 261 261 263 264 266 267 268 269 269 270 270 272 274 275 275
268 269 268 270 270 268 272 277 280 279 277 277 274 276 280 284 280 282 283 281 277 274 273 271 270 268 266 262 261 261 262 263 262 263 263 263 264 265 266 267 268 269 270 270 271 271 272 272 272
264 266 266 263 267 270 274 276 278 277 275 273 276 281 283 284 280 275 278 279 277 275 273 272 271 269 267 266 265 264 263 262 262 262 263 264 265 265 266 267 268 269 269 270 270 270 270 271 270
260 263 262 263 268 273 276 276 276 279 277 274 277 281 283 284 282 275 275 277 275 274 272 271 271 270 270 269 269 269 268 267 266 266 266 266 266 266 267 268 269 269 270 271 271 271 271 271 270
261 260 262 264 270 276 274 276 273 274 277 279 283 284 282 283 281 275 274 276 275 273 272 271 271 271 270 270 270 268 267 267 267 267 268 268 269 269 270 270 270 270 270 271 271 271 271 271 270
260 261 262 266 270 273 275 275 269 271 277 280 282 282 282 281 279 277 276 277 274 271 270 271 272 273 273 272 270 269 268 269 269 269 269 269 270 270 270 270 270 270 270 270 270 270 269 269 269
263 264 266 266 271 273 274 273 272 274 275 276 278 279 281 281 281 280 280 277 276 275 274 272 272 272 273 272 272 269 267 270 270 270 271 271 271 271 271 271 271 271 271 271 271 270 269 268 268
266 267 268 269 271 271 272 272 271 273 273 273 273 275 277 278 279 280 279 277 276 276 276 276 276 276 275 274 273 272 271 271 272 271 270 270 271 271 271 273 273 272 272 272 271 270 270 269 269
265 267 268 270 271 272 272 273 274 273 271 271 273 275 276 276 277 278 277 276 277 277 277 277 276 276 276 275 274 274 273 272 272 271 271 271 272 272 273 272 273 272 273 273 272 271 272 271 270
268 269 270 272 274 274 275 273 271 270 270 273 276 276 277 277 277 276 276 276 277 278 279 280 280 280 280 280 278 277 276 275 274 274 274 274 275 275 275 274 274 273 272 271 270 270 270 269 268
270 272 273 275 275 275 273 270 271 271 273 274 276 276 275 275 275 277 278 279 279 279 280 280 280 281 281 279 279 278 278 277 276 275 276 276 277 277 276 276 275 274 272 271 270 270 270 270 268